TimeEST,TemperatureF,Dew PointF,Humidity,Sea Level PressureIn,VisibilityMPH,Wind Direction,Wind SpeedMPH,Gust SpeedMPH,PrecipitationIn,Events,Conditions,WindDirDegrees,DateUTC
12:54 AM,34.0,27.0,75,30.23,10.0,East,4.6,-,N/A,,Clear,100,2012-11-22 05:54:00
1:54 AM,33.1,27.0,78,30.25,10.0,East,5.8,-,N/A,,Clear,100,2012-11-22 06:54:00
2:54 AM,30.9,26.1,82,30.24,10.0,East,3.5,-,N/A,,Clear,90,2012-11-22 07:54:00
3:54 AM,30.9,24.1,76,30.24,10.0,East,3.5,-,N/A,,Clear,100,2012-11-22 08:54:00
4:54 AM,28.9,26.1,89,30.26,8.0,Calm,Calm,-,N/A,,Clear,0,2012-11-22 09:54:00
5:54 AM,27.0,23.0,85,30.27,10.0,Calm,Calm,-,N/A,,Clear,0,2012-11-22 10:54:00
6:54 AM,28.0,23.0,81,30.27,10.0,Calm,Calm,-,N/A,,Clear,0,2012-11-22 11:54:00
7:54 AM,30.9,23.0,72,30.28,10.0,Calm,Calm,-,N/A,,Clear,0,2012-11-22 12:54:00
8:54 AM,35.1,26.1,70,30.28,10.0,NE,3.5,-,N/A,,Clear,40,2012-11-22 13:54:00
9:54 AM,39.9,28.0,63,30.27,10.0,Calm,Calm,-,N/A,,Clear,0,2012-11-22 14:54:00
10:54 AM,44.1,28.0,53,30.27,10.0,Calm,Calm,-,N/A,,Clear,0,2012-11-22 15:54:00
11:54 AM,48.9,28.9,46,30.23,10.0,WNW,3.5,-,N/A,,Clear,300,2012-11-22 16:54:00
12:54 PM,51.1,27.0,39,30.20,10.0,Calm,Calm,-,0.01,,Clear,0,2012-11-22 17:54:00
1:54 PM,54.0,25.0,33,30.19,10.0,SW,4.6,-,N/A,,Clear,230,2012-11-22 18:54:00
2:54 PM,55.0,26.1,33,30.17,10.0,West,4.6,-,N/A,,Clear,260,2012-11-22 19:54:00
3:54 PM,54.0,28.0,37,30.17,10.0,WSW,3.5,-,N/A,,Clear,240,2012-11-22 20:54:00
4:54 PM,48.9,28.0,44,30.17,10.0,SSE,3.5,-,N/A,,Clear,160,2012-11-22 21:54:00
5:54 PM,45.0,28.0,52,30.18,10.0,Calm,Calm,-,N/A,,Clear,0,2012-11-22 22:54:00
6:54 PM,43.0,27.0,53,30.17,10.0,Calm,Calm,-,N/A,,Clear,0,2012-11-22 23:54:00
7:54 PM,42.1,27.0,55,30.16,10.0,East,3.5,-,N/A,,Clear,100,2012-11-23 00:54:00
8:54 PM,39.0,27.0,62,30.16,10.0,East,4.6,-,N/A,,Clear,100,2012-11-23 01:54:00
9:54 PM,37.0,26.1,65,30.14,10.0,ESE,4.6,-,N/A,,Clear,110,2012-11-23 02:54:00
10:54 PM,37.0,26.1,65,30.12,10.0,East,5.8,-,N/A,,Clear,100,2012-11-23 03:54:00
11:54 PM,36.0,26.1,67,30.11,10.0,ESE,4.6,-,N/A,,Clear,110,2012-11-23 04:54:00